Date,TemperatureHighF,TemperatureAvgF,TemperatureLowF,DewpointHighF,DewpointAvgF,DewpointLowF,HumidityHigh,HumidityAvg,HumidityLow,PressureMaxIn,PressureMinIn,WindSpeedMaxMPH,WindSpeedAvgMPH,GustSpeedMaxMPH,PrecipitationSumIn
2013-1-1,22,17,10,12,6,2,77,64,48,30.26,30.15,4,0,8,0.00
2013-1-2,29,20,10,15,9,1,72,63,50,30.26,30.13,4,1,10,0.00
2013-1-3,29,26,18,23,19,13,82,76,68,30.29,30.12,8,1,10,0.00
2013-1-4,36,25,14,23,17,8,79,72,58,30.28,30.14,9,3,14,0.00
2013-1-5,38,31,22,33,26,18,96,81,65,30.28,29.96,7,1,13,0.18
2013-1-6,36,30,22,32,24,17,88,78,71,30.36,29.92,11,1,11,0.07
2013-1-7,40,29,20,27,22,15,84,73,55,30.36,30.13,10,1,13,0.01
2013-1-8,42,35,28,32,27,23,82,73,62,30.19,30.03,6,1,10,0.10
2013-1-9,48,40,31,32,27,22,78,62,37,30.51,30.02,14,2,19,0.01
2013-1-10,40,34,26,37,28,21,93,78,68,30.54,29.93,6,1,12,0.38
2013-1-11,53,49,38,52,47,37,100,93,87,29.93,29.67,9,1,17,0.41
2013-1-12,54,45,30,49,37,26,87,76,59,29.99,29.70,10,2,13,0.01
2013-1-13,30,24,14,27,20,6,89,82,71,30.27,29.88,9,1,12,0.02
2013-1-14,26,18,12,14,10,6,77,70,53,30.50,30.28,4,0,5,0.00
2013-1-15,30,22,15,20,14,10,80,71,54,30.49,30.16,2,0,3,0.00
2013-1-16,36,28,20,27,20,13,82,70,54,30.16,29.83,13,2,15,0.00
2013-1-17,33,26,20,28,12,5,81,56,38,30.45,30.08,10,0,10,0.00
2013-1-18,43,32,19,29,22,11,75,66,56,30.47,29.93,13,2,18,0.01
2013-1-19,47,41,26,36,30,9,73,65,42,29.95,29.72,18,3,18,0.00
2013-1-20,26,17,12,11,2,0,59,53,44,30.33,29.91,10,1,14,0.00
2013-1-21,14,9,3,4,-4,-9,72,57,46,30.33,30.18,12,2,12,0.00
2013-1-22,11,5,-2,-4,-7,-12,66,56,47,30.45,30.33,7,1,11,0.00
2013-1-23,19,14,8,12,4,-5,75,64,54,30.41,30.15,10,1,13,0.00
2013-1-24,21,15,6,12,3,-4,71,60,51,30.68,30.38,5,0,11,0.00
2013-1-25,26,22,19,20,14,7,82,70,55,30.44,30.01,5,0,9,0.00
2013-1-26,27,21,12,19,11,5,74,65,50,30.44,30.22,5,0,6,0.00
2013-1-27,36,29,25,34,23,17,93,78,68,30.42,29.95,7,1,9,0.02
2013-1-28,48,42,36,48,40,34,97,93,84,29.99,29.83,9,1,10,0.72
2013-1-29,63,55,38,60,53,37,98,94,89,29.84,29.40,6,1,13,0.65
2013-1-30,40,32,20,39,30,14,100,92,78,29.64,29.20,9,1,11,0.42
2013-1-31,20,14,5,15,7,-1,83,73,65,30.19,29.64,9,2,14,0.00
2013-2-1,14,7,0,10,0,-6,84,70,61,30.41,30.19,12,2,14,0.00
2013-2-2,23,16,8,20,11,1,90,81,71,30.24,30.07,9,0,9,0.00
2013-2-3,23,16,8,15,9,1,83,73,62,30.11,30.00,7,1,11,0.00
2013-2-4,28,23,15,25,20,9,92,86,77,30.09,29.90,3,0,5,0.00
2013-2-5,30,23,12,27,18,7,92,82,73,30.13,29.84,9,1,10,0.00
2013-2-6,37,30,16,30,23,11,88,75,62,30.28,30.14,4,0,6,0.03
2013-2-7,34,33,32,31,30,28,95,91,79,30.16,29.89,4,0,5,0.39
2013-2-8,32,27,24,31,24,22,94,88,85,30.43,29.97,5,0,7,0.01
2013-2-9,35,29,23,29,25,20,90,84,75,30.44,30.13,4,0,9,0.03
2013-2-10,48,39,32,45,36,27,95,88,77,30.12,29.51,12,1,14,0.22
2013-2-11,45,34,28,38,26,20,77,72,65,30.05,29.51,21,4,21,0.10
2013-2-12,28,26,24,22,20,18,84,77,73,30.13,29.95,6,1,12,0.00
2013-2-13,46,34,25,32,27,21,89,78,57,29.95,29.74,6,1,9,0.22
2013-2-14,39,37,32,33,29,21,82,73,59,30.00,29.65,8,1,14,0.16
2013-2-15,32,27,20,24,15,10,83,60,42,30.21,30.00,5,0,7,0.03
2013-2-16,20,16,12,9,4,1,67,59,50,30.24,30.17,6,0,11,0.00
2013-2-17,31,21,9,14,5,0,68,51,31,30.28,30.06,5,0,8,0.01
2013-2-18,52,40,29,45,31,14,92,70,53,30.06,29.42,11,2,14,0.27
2013-2-19,32,17,11,28,9,0,86,71,60,30.22,29.55,11,3,18,0.01
2013-2-20,26,17,8,12,6,0,68,63,55,30.42,30.22,9,1,13,0.00
2013-2-21,32,26,19,25,20,10,87,76,66,30.42,30.07,10,2,13,0.00
2013-2-22,32,28,24,31,26,22,95,92,88,30.07,29.83,10,2,12,0.00
2013-2-23,29,26,23,25,21,19,90,83,75,30.00,29.92,7,1,11,0.00
2013-2-24,38,28,18,29,21,14,92,77,66,30.19,30.00,4,0,6,0.12
2013-2-25,38,31,22,30,26,18,95,80,65,30.22,30.02,4,0,5,0.05
2013-2-26,35,33,32,31,30,28,95,87,76,30.03,29.55,6,1,13,0.02
2013-2-27,34,33,32,33,32,31,95,95,94,29.72,29.54,5,0,9,0.21
2013-2-28,34,32,28,31,28,22,94,86,76,30.09,29.72,8,1,10,0.20
2013-3-1,31,28,26,26,23,21,87,83,77,30.22,30.07,10,1,10,0.00
2013-3-2,32,27,20,23,19,13,87,72,62,30.22,30.18,5,0,6,0.01
2013-3-3,30,24,16,17,14,9,77,65,47,30.19,30.12,4,0,5,0.01
2013-3-4,33,27,18,27,20,13,85,75,65,30.17,30.06,6,1,9,0.00
2013-3-5,32,31,29,30,28,26,92,87,78,30.06,29.85,6,1,6,0.00
2013-3-6,36,32,28,29,26,24,86,80,75,30.33,30.00,4,0,10,0.01
2013-3-7,37,32,27,27,25,23,84,75,63,30.46,30.32,3,0,4,0.20
2013-3-8,39,32,25,30,26,22,90,77,64,30.53,30.34,5,1,9,0.14
2013-3-9,45,38,32,36,30,25,85,73,61,30.34,29.86,6,1,15,0.04
2013-3-10,50,44,39,49,41,34,97,91,66,29.87,29.65,4,0,9,0.77
2013-3-11,49,40,33,48,38,30,95,93,88,29.79,29.55,7,1,10,0.09
2013-3-12,36,32,27,30,26,22,89,79,61,30.03,29.79,10,2,15,0.03
2013-3-13,34,27,21,23,15,10,85,61,38,30.36,30.03,10,1,11,0.00
2013-3-14,39,31,22,29,20,13,85,66,36,30.36,30.11,4,0,7,0.00
2013-3-15,42,35,32,33,31,28,93,85,69,30.12,29.79,3,0,6,0.06
2013-3-16,35,32,30,33,28,22,94,86,70,30.16,29.76,5,0,9,0.00
2013-3-17,34,31,28,26,22,18,75,69,64,30.26,30.05,8,1,11,0.01
2013-3-18,34,30,23,32,26,14,92,83,66,30.05,29.63,13,2,18,0.05
2013-3-19,33,25,17,16,12,9,72,60,45,30.09,29.79,17,4,20,0.00
2013-3-20,25,20,14,13,7,2,73,57,48,30.12,30.05,11,1,13,0.00
2013-3-21,34,24,14,18,10,4,66,57,44,30.09,30.04,6,1,9,0.00
2013-3-22,35,28,20,22,17,12,77,63,43,30.12,30.05,4,0,5,0.00
2013-3-23,38,32,25,27,24,21,86,73,60,30.18,30.06,3,0,5,0.00
2013-3-24,37,34,32,30,27,25,85,76,69,30.07,29.70,10,1,12,0.00
2013-3-25,36,34,32,30,27,24,83,75,70,30.10,29.73,5,1,10,0.00
2013-3-26,41,35,31,30,26,23,82,70,55,30.27,30.09,3,0,5,0.00
2013-3-27,41,37,31,27,24,21,74,59,49,30.35,30.27,4,0,5,0.00
2013-3-28,47,36,28,30,24,20,72,62,39,30.37,30.31,5,0,6,0.00
2013-3-29,50,39,31,32,26,22,83,62,35,30.35,30.27,5,0,5,0.00
2013-3-30,61,46,29,41,32,25,87,62,39,30.28,29.85,6,1,11,0.00
2013-3-31,58,48,37,43,36,24,87,66,39,29.90,29.69,10,2,16,0.00
2013-4-1,41,35,30,25,17,12,70,49,34,30.21,29.90,11,1,11,0.00
2013-4-2,45,34,25,22,15,11,67,47,26,30.33,30.21,5,1,10,0.00
2013-4-3,41,33,25,27,20,16,70,58,43,30.50,30.33,6,0,7,0.00
2013-4-4,60,45,30,34,25,20,76,48,27,30.36,29.99,8,1,11,0.00
2013-4-5,48,40,35,34,29,25,81,66,53,30.27,30.02,5,0,7,0.00
2013-4-6,69,52,36,48,36,28,81,56,33,30.20,29.59,14,2,18,0.08
2013-4-7,55,46,38,48,38,32,82,74,55,30.00,29.60,10,1,15,0.01
2013-4-8,62,48,39,56,42,34,97,82,65,30.03,29.58,16,2,19,0.55
2013-4-9,44,39,38,43,38,36,96,94,91,30.05,29.87,4,0,7,0.06
2013-4-10,39,38,37,38,37,35,96,95,93,30.09,29.87,11,1,13,0.30
2013-4-11,43,40,37,42,39,35,100,96,94,29.94,29.59,5,1,7,0.47
2013-4-12,46,40,37,41,35,30,97,84,71,29.86,29.58,10,2,14,0.13
2013-4-13,44,40,35,32,29,27,83,66,53,30.02,29.85,13,2,13,0.05
2013-4-14,63,45,38,49,37,30,81,74,57,30.05,29.70,11,2,11,0.04
2013-4-15,67,57,44,55,50,42,92,77,57,29.99,29.68,15,2,16,0.02
2013-4-16,50,43,40,41,36,33,92,78,63,30.31,29.96,4,0,6,0.02
2013-4-17,46,42,40,45,39,34,96,88,78,30.32,29.83,9,1,14,0.02
2013-4-18,63,52,42,60,50,35,99,94,75,29.85,29.42,11,2,16,0.03
2013-4-19,42,38,33,35,30,26,85,73,66,29.92,29.48,12,3,19,0.02
2013-4-20,46,36,30,28,23,18,82,60,33,30.47,29.92,10,1,11,0.03
2013-4-21,50,43,36,32,27,21,64,53,43,30.56,30.35,9,2,10,0.02
2013-4-22,64,52,44,42,34,30,59,51,36,30.35,30.06,9,1,9,0.02
2013-4-23,60,50,37,52,43,35,91,78,54,30.05,29.89,3,0,6,0.02
2013-4-24,51,42,37,35,32,29,91,68,44,30.13,29.94,6,1,10,0.02
2013-4-25,52,45,38,38,32,30,89,62,45,30.35,30.06,10,1,13,0.01
2013-4-26,68,55,38,47,39,29,73,55,43,30.37,30.23,14,1,14,0.01
2013-4-27,63,55,48,49,45,41,84,69,54,30.30,30.01,6,1,7,0.02
2013-4-28,56,51,47,51,46,41,91,83,71,30.01,29.85,3,0,4,0.01
2013-4-29,75,63,48,56,52,46,94,71,47,29.92,29.78,6,1,13,0.01
2013-4-30,87,73,62,63,58,53,78,61,38,29.92,29.77,10,2,15,0.01
2013-5-1,85,73,51,61,57,45,79,58,37,30.14,29.92,7,1,10,0.01
2013-5-2,51,44,40,45,39,36,85,81,74,30.25,30.14,9,1,11,0.00
2013-5-3,44,41,39,43,38,35,94,91,84,30.18,29.99,10,1,10,0.01
2013-5-4,58,50,44,48,44,42,95,82,66,30.07,29.98,3,0,4,0.01
2013-5-5,55,50,47,46,43,40,83,75,68,30.07,30.01,4,0,6,0.00
2013-5-6,56,52,48,44,42,40,82,69,57,30.07,30.00,3,0,5,0.01
2013-5-7,61,53,45,45,42,39,81,67,50,30.08,30.01,3,0,5,0.00
2013-5-8,66,57,46,50,44,42,89,64,44,30.06,29.98,3,0,4,0.01
2013-5-9,66,55,44,60,47,41,92,75,59,29.98,29.86,3,0,4,0.00
2013-5-10,45,43,41,44,41,38,96,92,87,30.01,29.79,7,1,13,0.01
2013-5-11,58,50,43,50,39,28,92,69,35,30.04,29.83,6,1,11,0.00
2013-5-12,53,44,39,35,30,26,73,58,38,30.13,30.04,5,0,10,0.01
2013-5-13,52,47,40,39,36,32,81,65,53,30.21,30.01,4,0,6,0.00
2013-5-14,86,67,52,61,51,38,74,56,41,30.01,29.62,7,1,11,0.00
2013-5-15,80,72,58,61,53,49,75,53,39,29.83,29.59,7,1,13,0.00
2013-5-16,79,62,52,56,48,42,86,64,35,29.99,29.81,3,0,4,0.00
2013-5-17,59,54,50,51,46,42,80,75,68,30.09,29.96,4,0,5,0.00
2013-5-18,68,60,52,58,52,46,86,76,62,30.08,29.96,1,0,2,0.00
2013-5-19,81,66,56,68,59,53,93,78,62,29.98,29.77,3,0,4,0.00
2013-5-20,90,80,67,70,64,56,89,60,33,29.78,29.67,10,1,13,0.05
2013-5-21,82,72,63,66,64,61,94,76,54,29.74,29.62,6,1,10,0.03
2013-5-22,72,63,51,69,60,49,99,92,69,29.77,29.61,2,0,4,0.00
2013-5-23,51,46,42,50,42,36,96,86,73,30.32,29.77,15,1,15,0.00
2013-5-24,51,45,40,42,37,35,85,74,64,30.47,30.32,4,0,7,0.00
2013-5-25,51,47,39,45,40,35,88,78,72,30.43,30.32,1,0,2,0.00
2013-5-26,59,52,41,50,45,38,92,78,66,30.34,30.16,1,0,3,0.00
2013-5-27,56,52,50,53,50,45,94,90,80,30.17,29.89,4,0,5,0.00
2013-5-28,76,65,52,70,63,50,100,92,79,29.90,29.72,3,0,8,0.46
2013-5-29,78,71,65,69,66,62,97,83,68,29.94,29.76,6,0,6,0.00
2013-5-30,85,76,65,73,68,63,94,77,67,29.92,29.77,6,1,12,0.99
2013-5-31,79,72,64,70,66,62,98,84,67,29.86,29.69,6,0,11,0.21
2013-6-1,76,70,63,70,64,61,96,84,71,29.73,29.65,5,0,7,0.40
2013-6-2,63,52,44,62,49,41,96,91,82,30.06,29.69,2,0,4,0.01
2013-6-3,66,54,42,53,45,40,96,73,51,30.14,30.06,2,0,3,0.00
2013-6-4,67,56,47,53,48,44,95,77,57,30.19,30.11,3,0,4,0.00
2013-6-5,66,57,52,54,50,48,89,79,62,30.13,29.96,2,0,3,0.00
2013-6-6,55,54,52,53,50,47,94,89,80,29.96,29.90,4,0,5,0.09
2013-6-7,59,55,51,52,48,42,92,79,59,29.98,29.92,4,0,5,0.00
2013-6-8,71,57,46,53,48,42,90,73,46,30.03,29.92,2,0,3,0.00
2013-6-9,76,65,54,65,58,50,91,78,66,30.03,29.81,4,0,4,0.00
2013-6-10,66,62,59,63,59,56,97,91,81,29.87,29.75,2,0,4,0.12
2013-6-11,81,71,58,69,64,57,98,80,63,29.92,29.80,3,0,4,0.00
2013-6-12,74,65,60,67,62,58,97,88,74,29.92,29.59,4,0,6,0.47
2013-6-13,66,60,56,60,55,52,98,84,72,30.07,29.64,7,0,7,0.00
2013-6-14,62,58,55,55,52,50,88,83,75,30.16,30.04,2,0,4,0.00
2013-6-15,75,65,54,69,61,51,97,89,77,30.08,29.84,4,0,6,0.14
2013-6-16,83,75,68,71,67,64,87,77,62,29.90,29.83,6,0,9,0.00
2013-6-17,89,73,58,64,59,53,90,66,34,29.95,29.82,4,0,4,0.02
2013-6-18,61,57,54,56,53,50,100,86,77,30.09,29.92,4,0,6,0.02
2013-6-19,70,61,54,58,52,47,92,73,55,30.17,30.08,1,0,2,0.00
2013-6-20,83,69,56,66,58,51,91,69,52,30.16,30.07,3,0,5,0.00
2013-6-21,83,72,68,71,66,62,94,80,65,30.16,29.81,6,0,12,0.58
2013-6-22,80,72,66,74,68,63,97,87,74,30.12,29.94,3,0,6,0.02
2013-6-23,89,78,68,75,69,65,90,76,57,30.03,29.88,4,0,9,0.00
2013-6-24,83,73,67,72,68,65,94,84,70,30.03,29.82,7,0,7,0.24
2013-6-25,82,70,66,76,68,64,97,92,73,29.97,29.79,7,0,7,0.52
2013-6-26,78,69,65,71,67,62,99,92,76,29.84,29.72,4,0,6,1.88
2013-6-27,89,74,63,76,68,62,99,84,51,29.77,29.67,2,0,4,0.00
2013-6-28,83,73,66,69,64,61,93,74,49,29.69,29.57,5,0,12,0.00
2013-6-29,66,63,62,63,60,58,95,90,83,29.77,29.58,5,0,6,0.00
2013-6-30,69,64,61,60,58,54,92,81,67,29.99,29.77,3,0,8,0.01
2013-7-1,67,63,60,59,57,55,88,80,73,30.08,29.99,8,0,8,0.00
2013-7-2,66,62,60,58,56,54,92,81,71,30.10,30.05,3,0,5,0.00
2013-7-3,65,62,60,63,60,58,94,92,89,30.08,30.02,1,0,1,0.00
2013-7-4,81,71,59,69,63,58,98,79,60,30.10,30.02,4,0,5,0.00
2013-7-5,83,74,64,71,65,58,89,73,47,30.08,30.00,4,0,4,0.00
2013-7-6,81,74,67,71,67,63,92,80,67,30.06,29.95,1,0,1,0.00
2013-7-7,88,80,72,73,70,66,86,72,56,30.00,29.92,2,0,4,0.00
2013-7-8,86,78,71,78,72,69,95,83,73,30.00,29.90,4,0,4,0.00
2013-7-9,84,77,68,78,73,67,97,88,76,29.97,29.83,3,0,4,0.00
2013-7-10,83,76,65,76,70,60,94,82,66,29.99,29.81,3,0,4,0.00
2013-7-11,78,68,61,65,60,56,93,76,52,30.11,29.99,1,0,2,0.00
2013-7-12,76,67,56,65,60,53,95,79,65,30.15,30.08,3,0,3,0.00
2013-7-13,82,71,62,68,64,59,96,80,54,30.16,30.09,2,0,2,0.00
2013-7-14,85,76,71,73,70,66,88,80,65,30.21,30.14,2,0,4,0.00
2013-7-15,85,77,72,76,73,69,94,87,74,30.26,30.20,1,0,2,0.00
2013-7-16,93,83,75,78,75,72,92,78,60,30.29,30.21,3,0,5,0.00
2013-7-17,92,84,76,78,75,72,87,73,63,30.29,30.13,3,0,4,0.00
2013-7-18,96,86,77,78,75,72,89,70,49,30.16,29.92,3,0,6,0.00
2013-7-19,96,87,73,76,73,68,91,65,45,29.92,29.71,11,1,11,0.06
2013-7-20,84,75,70,72,69,65,92,81,65,29.94,29.76,1,0,3,0.01
2013-7-21,84,74,68,72,68,62,95,81,64,29.95,29.83,2,0,5,0.09
2013-7-22,85,77,70,74,70,67,98,81,62,29.87,29.72,4,0,4,0.03
2013-7-23,79,70,65,67,62,56,86,76,60,29.97,29.65,4,0,4,0.01
2013-7-24,73,66,60,56,54,51,79,65,52,30.08,29.96,3,0,4,0.01
2013-7-25,77,67,56,61,57,53,90,72,53,30.11,30.02,3,0,3,0.01
2013-7-26,71,68,64,65,62,59,93,81,67,30.04,29.86,5,0,5,0.01
2013-7-27,65,61,58,62,53,47,91,76,61,29.91,29.85,4,0,7,0.01
2013-7-28,69,61,55,53,50,48,80,68,53,30.02,29.86,3,0,8,0.01
2013-7-29,69,64,57,59,56,52,85,75,65,30.18,30.01,2,0,3,0.01
2013-7-30,75,66,58,65,61,54,93,83,71,30.19,30.07,1,0,3,0.01
2013-7-31,71,68,64,67,64,62,94,88,82,30.07,29.93,2,0,4,0.01
2013-8-1,80,69,61,66,61,56,97,79,47,29.97,29.93,2,0,2,0.02
2013-8-2,82,71,63,71,65,57,93,81,68,29.94,29.83,2,0,3,0.01
2013-8-3,77,70,63,64,61,58,84,72,54,30.10,29.93,3,0,4,0.01
2013-8-4,75,67,60,63,59,56,93,76,60,30.21,30.10,2,0,3,0.01
2013-8-5,75,67,60,64,59,53,87,75,62,30.13,29.89,4,0,5,0.01
2013-8-6,82,74,67,73,69,64,95,85,70,29.89,29.81,3,0,6,0.00
2013-8-7,88,76,69,76,70,64,93,84,67,29.94,29.76,2,0,6,0.02
2013-8-8,78,71,68,64,60,54,86,71,55,30.03,29.93,2,0,3,0.00
2013-8-9,83,73,60,68,62,56,88,71,52,30.02,29.95,2,0,4,0.01
2013-8-10,80,73,68,68,65,59,90,76,64,30.13,30.02,2,0,3,0.00
2013-8-11,80,70,60,67,62,57,91,76,55,30.12,30.02,2,0,2,0.01
2013-8-12,83,72,68,70,67,65,94,84,61,30.03,29.86,2,0,5,0.00
2013-8-13,69,65,61,66,55,51,93,71,58,30.15,29.92,4,0,7,0.00
2013-8-14,71,64,58,54,53,50,83,67,51,30.23,30.14,3,0,4,0.00
2013-8-15,75,65,57,60,55,50,85,71,53,30.16,30.10,2,0,3,0.01
2013-8-16,79,67,57,65,59,53,88,75,55,30.19,30.11,1,0,3,0.00
2013-8-17,80,69,59,65,61,56,96,77,58,30.24,30.16,2,0,5,0.00
2013-8-18,79,70,61,67,62,58,96,78,63,30.20,30.10,4,0,4,0.00
2013-8-19,84,72,60,67,62,57,92,74,51,30.12,30.02,3,0,4,0.00
2013-8-20,86,76,65,69,65,62,91,69,46,30.11,30.01,2,0,4,0.00
2013-8-21,91,81,70,70,68,64,85,65,48,30.07,29.93,3,0,5,0.00
2013-8-22,81,72,66,70,67,63,94,86,68,30.13,29.99,4,0,5,0.04
2013-8-23,80,72,66,65,63,58,93,74,54,30.18,30.09,3,0,3,0.00
2013-8-24,84,73,62,68,62,57,94,71,53,30.26,30.17,2,0,4,0.00
2013-8-25,91,79,68,71,64,55,67,60,50,30.23,30.10,4,0,7,0.00
2013-8-26,90,81,72,75,70,63,78,68,56,30.13,29.97,2,0,6,0.00
2013-8-27,96,84,77,76,73,71,81,71,47,29.97,29.82,3,0,5,0.00